Regional Weather Roundup
Issued by NWS

Home | Current Version | Previous Version | Graphics & Text | Print | Product List | Glossary On
Versions: 1 2 3 4 5 6 7 8 9 10 11 12 13 14 15 16 17 18 19 20 21 22 23 24 25 26 27 28 29 30 31 32 33 34 35 36 37 38 39 40 41 42 43 44 45 46 47 48 49 50
000
ASUS45 KCYS 261710
RWRWY

WYOMING REGIONAL WEATHER ROUNDUP
NATIONAL WEATHER SERVICE CHEYENNE WY
1100 AM MDT SUN APR 26 2015

NOTE:  "FAIR" INDICATES FEW OR NO CLOUDS BELOW 12,000 FEET
WITH NO SIGNIFICANT WEATHER AND/OR OBSTRUCTIONS TO VISIBILITY.

WYZ001-261800-
YELLOWSTONE NATIONAL PARK

CITY           SKY/WX    TMP DP  RH WIND       PRES   REMARKS
LK YELLOWSTONE   N/A     34  29  82 VRB3      29.94R
W YELLOWSTONE  NOT AVBL

$$
WYZ002>013-054>058-071-098>099-261800-
NORTHERN WYOMING

CITY           SKY/WX    TMP DP  RH WIND       PRES   REMARKS
JACKSON        CLOUDY    37  37 100 VRB7      29.89R WCI  32
CODY           CLOUDY    36  32  87 N9        29.97R WCI  29
GREYBULL       LGT RAIN  43  39  86 W20       29.94R
WORLAND        CLOUDY    40  37  89 NW7       29.95R
SHERIDAN       LGT RAIN  39  36  89 NW8       30.02R WCI  33
BUFFALO        HVY RAIN  35  33  92 NW8       30.01R FOG     WCI  29
GILLETTE       LGT RAIN  41  39  93 NE13      29.96R FOG
HULETT         CLOUDY    41  39  93 NE9       29.99R
NEWCASTLE      DRIZZLE   45  45 100 CALM      29.94R

$$
WYZ014>020-022>026-101>103-261800-
CENTRAL WYOMING

CITY           SKY/WX    TMP DP  RH WIND       PRES   REMARKS
BIG PINEY      CLOUDY    42  37  82 SE10      29.86R
PINEDALE       CLOUDY    43  37  81 SE8       29.87R
DUBOIS         CLOUDY    36  32  87 E9        29.90R WCI  29
LANDER         LGT RAIN  38  35  89 N5        29.92R WCI  34
RIVERTON       LGT RAIN  37  35  92 N13       29.93R FOG     WCI  29
CASPER         CLOUDY    38  35  89 NE16      29.93R WCI  29
DOUGLAS        LGT RAIN  44  44 100 NW7       29.91R

$$
WYZ021-027>030-104>119-261800-
SOUTHERN WYOMING

CITY           SKY/WX    TMP DP  RH WIND       PRES   REMARKS
EVANSTON       CLOUDY    32  30  92 W8        29.92R WCI  25
KEMMERER       CLOUDY    36  32  87 W18G24    29.88R WCI  25
FORT BRIDGER   CLOUDY    37  34  87 NW18G25   29.91R WCI  27
ROCK SPRINGS   LGT RAIN  43  36  76 W16       29.84R
DIXON          FAIR      53  35  50 W6        29.81S
RAWLINS        FAIR      50  37  61 NE14      29.84R
SARATOGA       FAIR      48  37  66 MISG      29.83S
LARAMIE        CLOUDY    44  36  73 S18       29.86S
CHEYENNE       CLOUDY    41  39  93 SE15      29.90R
TORRINGTON     LGT RAIN  46  44  93 E23G31    29.90R FOG
PINE BLUFFS    LGT RAIN  41  39  93 E13       29.92R

$$


USA.gov is the U.S. government's official web portal to all federal, state and local government web resources and services.